CFG7EJ EDDH-EDDF

Flight info

Callsign CFG7EJ
Flight time 0h 47m
Altitude 30000
Route AMLUH2G/33 AMLUH M852 DENIX DCT RIMET/N0446F310 T157 KOKEB/N0404F230 T157 KERAX KERAX4A
Aircraft A320/M-SDE3FGHIRWY/LB1

Departure

Time 2026-04-16 10:53
Airport Hamburg Helmut Schmidt Airport (EDDH)

Arrival

Time 2026-04-16 11:40
Airport Frankfurt Main Airport (EDDF)
Time Latitude Longitude Altitude Speed Heading
2026-04-16 10:50 53.62997 9.99959 50 ft 0 kts 152°
2026-04-16 10:51 53.62986 9.99969 50 ft 4 kts 153°
2026-04-16 10:51 53.62949 9.99997 48 ft 7 kts 162°
2026-04-16 10:51 53.62913 9.99970 49 ft 5 kts 236°
2026-04-16 10:51 53.62897 9.99913 50 ft 8 kts 245°
2026-04-16 10:52 53.62862 9.99786 47 ft 13 kts 245°
2026-04-16 10:52 53.62915 9.99700 47 ft 17 kts 336°
2026-04-16 10:52 53.63228 9.99432 47 ft 85 kts 333°
2026-04-16 10:52 53.63941 9.98820 48 ft 143 kts 333°
2026-04-16 10:53 53.64934 9.97978 288 ft 167 kts 333°
2026-04-16 10:53 53.65978 9.97112 901 ft 167 kts 329°
2026-04-16 10:53 53.67005 9.96219 1613 ft 166 kts 328°
2026-04-16 10:53 53.68059 9.95289 2100 ft 181 kts 329°
2026-04-16 10:54 53.69347 9.94651 2423 ft 208 kts 352°
2026-04-16 10:54 53.70852 9.94652 2900 ft 221 kts 357°
2026-04-16 10:54 53.72392 9.94991 3571 ft 229 kts 22°
2026-04-16 10:54 53.73602 9.96736 4301 ft 236 kts 59°
2026-04-16 10:55 53.74063 9.99400 5015 ft 239 kts 83°
2026-04-16 10:55 53.74164 10.02220 5675 ft 243 kts 97°
2026-04-16 10:55 53.73754 10.04972 6236 ft 251 kts 117°
2026-04-16 10:55 53.72880 10.07655 6564 ft 272 kts 124°
2026-04-16 10:56 53.71894 10.10526 7058 ft 289 kts 123°
2026-04-16 10:56 53.70888 10.13503 7820 ft 294 kts 122°
2026-04-16 10:56 53.69851 10.16505 8627 ft 297 kts 127°
2026-04-16 10:56 53.68492 10.19122 9435 ft 297 kts 143°
2026-04-16 10:57 53.66790 10.21063 10219 ft 295 kts 158°
2026-04-16 10:57 53.64846 10.22254 10723 ft 305 kts 169°
2026-04-16 10:57 53.62719 10.23227 10933 ft 329 kts 169°
2026-04-16 10:57 53.60436 10.24245 11221 ft 347 kts 169°
2026-04-16 10:58 53.58079 10.25302 11852 ft 354 kts 169°
2026-04-16 10:58 53.55690 10.26385 12557 ft 358 kts 168°
2026-04-16 10:58 53.53278 10.27484 13270 ft 361 kts 168°
2026-04-16 10:58 53.50842 10.28600 13976 ft 365 kts 168°
2026-04-16 10:59 53.48382 10.29728 14588 ft 368 kts 168°
2026-04-16 10:59 53.45901 10.30866 15219 ft 371 kts 168°
2026-04-16 10:59 53.43401 10.32013 15852 ft 374 kts 168°
2026-04-16 10:59 53.40885 10.33161 16482 ft 376 kts 168°
2026-04-16 11:00 53.38378 10.34295 17028 ft 381 kts 168°
2026-04-16 11:00 53.35799 10.35455 17589 ft 385 kts 167°
2026-04-16 11:00 53.33198 10.36618 18187 ft 388 kts 167°
2026-04-16 11:00 53.30575 10.37790 18742 ft 392 kts 167°
2026-04-16 11:01 53.27930 10.38972 19243 ft 395 kts 167°
2026-04-16 11:01 53.25265 10.40162 19753 ft 398 kts 168°
2026-04-16 11:01 53.22576 10.41364 20270 ft 402 kts 168°
2026-04-16 11:01 53.19861 10.42573 20778 ft 405 kts 168°
2026-04-16 11:02 53.17129 10.43789 21278 ft 409 kts 168°
2026-04-16 11:02 53.14360 10.44923 21748 ft 410 kts 173°
2026-04-16 11:02 53.11526 10.45383 22221 ft 409 kts 183°
2026-04-16 11:02 53.08690 10.45120 22689 ft 410 kts 188°
2026-04-16 11:03 53.05834 10.44716 23159 ft 412 kts 188°
2026-04-16 11:03 53.02962 10.44315 23614 ft 415 kts 188°
2026-04-16 11:03 52.97168 10.43519 24382 ft 420 kts 189°
2026-04-16 11:04 52.94247 10.43125 24749 ft 422 kts 189°
2026-04-16 11:04 52.91350 10.42735 25104 ft 424 kts 189°
2026-04-16 11:04 52.88402 10.42338 25465 ft 426 kts 189°
2026-04-16 11:04 52.85442 10.41938 25810 ft 428 kts 189°
2026-04-16 11:05 52.82466 10.41536 26170 ft 430 kts 189°
2026-04-16 11:05 52.79477 10.41126 26494 ft 432 kts 189°
2026-04-16 11:05 52.76475 10.40715 26831 ft 434 kts 189°
2026-04-16 11:05 52.73466 10.40306 27160 ft 435 kts 189°
2026-04-16 11:06 52.70436 10.39897 27479 ft 437 kts 189°
2026-04-16 11:06 52.67400 10.39483 27796 ft 439 kts 190°
2026-04-16 11:06 52.64345 10.39072 28108 ft 441 kts 190°
2026-04-16 11:06 52.61283 10.38662 28396 ft 443 kts 190°
2026-04-16 11:07 52.58207 10.38247 28688 ft 444 kts 190°
2026-04-16 11:07 52.55122 10.37828 28936 ft 446 kts 190°
2026-04-16 11:07 52.52020 10.37405 29197 ft 448 kts 191°
2026-04-16 11:07 52.48979 10.36551 29442 ft 443 kts 199°
2026-04-16 11:08 52.45975 10.35346 29689 ft 444 kts 199°
2026-04-16 11:08 52.42972 10.34130 29931 ft 445 kts 199°
2026-04-16 11:08 52.39967 10.32909 30159 ft 445 kts 199°
2026-04-16 11:09 52.34044 10.30504 30194 ft 435 kts 200°
2026-04-16 11:09 52.28179 10.28121 30196 ft 434 kts 199°
2026-04-16 11:10 52.22308 10.25760 30196 ft 434 kts 199°
2026-04-16 11:10 52.16438 10.23410 30198 ft 434 kts 199°
2026-04-16 11:11 52.10572 10.21051 30199 ft 434 kts 199°
2026-04-16 11:11 52.04743 10.18720 30177 ft 434 kts 199°
2026-04-16 11:12 51.98870 10.16390 30186 ft 434 kts 199°
2026-04-16 11:12 51.92998 10.14056 30187 ft 434 kts 199°
2026-04-16 11:13 51.87127 10.11730 30187 ft 435 kts 199°
2026-04-16 11:13 51.81246 10.09400 30163 ft 435 kts 200°
2026-04-16 11:14 51.75364 10.07073 30175 ft 435 kts 199°
2026-04-16 11:14 51.69472 10.04753 30184 ft 436 kts 199°
2026-04-16 11:15 51.63582 10.02452 29833 ft 434 kts 199°
2026-04-16 11:15 51.60642 10.01310 28861 ft 436 kts 199°
2026-04-16 11:15 51.57694 10.00159 28300 ft 437 kts 199°
2026-04-16 11:15 51.54745 9.99005 27764 ft 435 kts 199°
2026-04-16 11:16 51.51818 9.97867 27238 ft 432 kts 199°
2026-04-16 11:16 51.48903 9.96740 26722 ft 429 kts 199°
2026-04-16 11:16 51.46055 9.95639 26226 ft 426 kts 199°
2026-04-16 11:16 51.43181 9.94532 25729 ft 423 kts 199°
2026-04-16 11:17 51.40329 9.93432 25240 ft 420 kts 199°
2026-04-16 11:17 51.37496 9.92337 24736 ft 418 kts 199°
2026-04-16 11:17 51.34676 9.91245 24266 ft 416 kts 199°
2026-04-16 11:17 51.31877 9.90162 23794 ft 413 kts 198°
2026-04-16 11:18 51.29093 9.89082 23250 ft 410 kts 198°
2026-04-16 11:18 51.26330 9.88007 22706 ft 407 kts 198°
2026-04-16 11:18 51.23588 9.86944 22171 ft 404 kts 198°
2026-04-16 11:18 51.20868 9.85898 21646 ft 401 kts 198°
2026-04-16 11:19 51.18166 9.84866 21135 ft 398 kts 198°
2026-04-16 11:19 51.15484 9.83844 20608 ft 395 kts 198°
2026-04-16 11:19 51.12819 9.82830 20114 ft 392 kts 197°
2026-04-16 11:19 51.10173 9.81820 19629 ft 390 kts 197°
2026-04-16 11:20 51.07540 9.80815 19148 ft 387 kts 197°
2026-04-16 11:20 51.04935 9.79822 18675 ft 384 kts 197°
2026-04-16 11:20 51.02377 9.78850 18166 ft 382 kts 197°
2026-04-16 11:20 50.99805 9.77871 17631 ft 379 kts 197°
2026-04-16 11:21 50.97245 9.76890 17098 ft 377 kts 197°
2026-04-16 11:21 50.94708 9.75923 16583 ft 374 kts 197°
2026-04-16 11:21 50.92186 9.74968 16062 ft 371 kts 197°
2026-04-16 11:21 50.89683 9.74021 15559 ft 369 kts 197°
2026-04-16 11:22 50.87199 9.73077 15146 ft 364 kts 197°
2026-04-16 11:22 50.84762 9.72152 14887 ft 356 kts 197°
2026-04-16 11:22 50.82384 9.71254 14642 ft 347 kts 197°
2026-04-16 11:22 50.80055 9.70377 14401 ft 342 kts 197°
2026-04-16 11:23 50.77746 9.69508 14165 ft 340 kts 197°
2026-04-16 11:23 50.75442 9.68639 13914 ft 339 kts 197°
2026-04-16 11:23 50.73146 9.67776 13645 ft 338 kts 197°
2026-04-16 11:23 50.70862 9.66917 13375 ft 336 kts 197°
2026-04-16 11:24 50.68590 9.66062 13111 ft 335 kts 196°
2026-04-16 11:24 50.66327 9.65216 12847 ft 333 kts 196°
2026-04-16 11:24 50.64073 9.64378 12588 ft 332 kts 196°
2026-04-16 11:24 50.61829 9.63538 12341 ft 331 kts 196°
2026-04-16 11:25 50.59595 9.62701 12073 ft 329 kts 196°
2026-04-16 11:25 50.57369 9.61869 11818 ft 328 kts 196°
2026-04-16 11:25 50.55148 9.61042 11569 ft 327 kts 196°
2026-04-16 11:25 50.52941 9.60222 11328 ft 326 kts 196°
2026-04-16 11:26 50.50739 9.59401 11225 ft 324 kts 196°
2026-04-16 11:26 50.48541 9.58584 11234 ft 325 kts 196°
2026-04-16 11:26 50.46338 9.57761 11232 ft 326 kts 196°
2026-04-16 11:26 50.44133 9.56913 10980 ft 326 kts 196°
2026-04-16 11:27 50.41937 9.56056 10730 ft 324 kts 196°
2026-04-16 11:27 50.39753 9.55197 10490 ft 323 kts 196°
2026-04-16 11:27 50.37611 9.54354 10260 ft 321 kts 196°
2026-04-16 11:27 50.35448 9.53508 9997 ft 320 kts 196°
2026-04-16 11:28 50.33292 9.52669 9729 ft 319 kts 196°
2026-04-16 11:28 50.31141 9.51834 9466 ft 318 kts 196°
2026-04-16 11:28 50.29000 9.51005 9200 ft 317 kts 196°
2026-04-16 11:28 50.26981 9.49825 8932 ft 304 kts 212°
2026-04-16 11:29 50.25373 9.47821 8780 ft 289 kts 230°
2026-04-16 11:29 50.24272 9.45301 8605 ft 275 kts 246°
2026-04-16 11:29 50.23609 9.42535 8279 ft 271 kts 252°
2026-04-16 11:29 50.23000 9.39764 7897 ft 269 kts 252°
2026-04-16 11:30 50.22375 9.37022 7513 ft 267 kts 251°
2026-04-16 11:30 50.21746 9.34298 7141 ft 266 kts 251°
2026-04-16 11:30 50.21117 9.31592 6775 ft 264 kts 251°
2026-04-16 11:30 50.20492 9.28897 6387 ft 263 kts 251°
2026-04-16 11:31 50.19874 9.26223 6015 ft 261 kts 251°
2026-04-16 11:31 50.19259 9.23570 5610 ft 259 kts 251°
2026-04-16 11:31 50.18648 9.20931 5205 ft 258 kts 250°
2026-04-16 11:31 50.18042 9.18304 4782 ft 257 kts 250°
2026-04-16 11:32 50.17435 9.15683 4332 ft 257 kts 250°
2026-04-16 11:32 50.16835 9.13106 4044 ft 255 kts 250°
2026-04-16 11:32 50.16212 9.10510 4034 ft 256 kts 250°
2026-04-16 11:32 50.15597 9.07896 4035 ft 257 kts 250°
2026-04-16 11:33 50.14990 9.05288 4037 ft 256 kts 250°
2026-04-16 11:33 50.14381 9.02677 4037 ft 257 kts 250°
2026-04-16 11:33 50.13780 9.00100 4029 ft 245 kts 250°
2026-04-16 11:33 50.13216 8.97691 4029 ft 229 kts 250°
2026-04-16 11:34 50.12675 8.95375 4027 ft 227 kts 250°
2026-04-16 11:34 50.12134 8.93069 4025 ft 226 kts 249°
2026-04-16 11:34 50.11596 8.90773 4024 ft 226 kts 250°
2026-04-16 11:34 50.11065 8.88514 4018 ft 215 kts 250°
2026-04-16 11:35 50.10570 8.86405 3987 ft 201 kts 250°
2026-04-16 11:35 50.10100 8.84408 3826 ft 193 kts 250°
2026-04-16 11:35 50.09645 8.82477 3567 ft 187 kts 249°
2026-04-16 11:35 50.09202 8.80595 3321 ft 183 kts 250°
2026-04-16 11:36 50.08764 8.78737 3070 ft 183 kts 250°
2026-04-16 11:36 50.08328 8.76892 2821 ft 179 kts 250°
2026-04-16 11:36 50.07990 8.75098 2523 ft 169 kts 257°
2026-04-16 11:36 50.07765 8.73405 2322 ft 152 kts 259°
2026-04-16 11:37 50.07642 8.72352 2130 ft 146 kts 258°
2026-04-16 11:37 50.07411 8.70854 1889 ft 139 kts 255°
2026-04-16 11:37 50.07005 8.68992 1615 ft 135 kts 246°
2026-04-16 11:37 50.06622 8.67634 1433 ft 137 kts 248°
2026-04-16 11:38 50.06305 8.66254 1256 ft 136 kts 251°
2026-04-16 11:38 50.05988 8.64860 1144 ft 137 kts 248°
2026-04-16 11:38 50.05634 8.63477 986 ft 138 kts 249°
2026-04-16 11:38 50.05401 8.62536 902 ft 137 kts 251°
2026-04-16 11:39 50.05086 8.61120 699 ft 139 kts 250°
2026-04-16 11:39 50.04763 8.59739 533 ft 137 kts 247°
2026-04-16 11:39 50.04434 8.58352 389 ft 136 kts 247°
2026-04-16 11:39 50.04112 8.57040 362 ft 114 kts 252°
2026-04-16 11:40 50.03899 8.56132 351 ft 65 kts 250°
2026-04-16 11:40 50.03801 8.55712 353 ft 22 kts 249°
2026-04-16 11:40 50.03810 8.55528 348 ft 17 kts 328°
2026-04-16 11:40 50.03877 8.55494 356 ft 0 kts 341°
2026-04-16 11:41 50.03878 8.55493 356 ft 1 kts 341°
2026-04-16 11:41 50.03893 8.55486 354 ft 6 kts 341°
2026-04-16 11:41 50.03941 8.55510 353 ft 8 kts 66°
2026-04-16 11:42 50.03971 8.55624 358 ft 18 kts 69°
2026-04-16 11:42 50.04024 8.55850 357 ft 25 kts 70°
2026-04-16 11:42 50.04087 8.56112 354 ft 27 kts 69°
2026-04-16 11:42 50.04154 8.56391 353 ft 28 kts 70°
2026-04-16 11:43 50.04219 8.56662 358 ft 25 kts 70°
2026-04-16 11:43 50.04282 8.56924 355 ft 25 kts 70°
2026-04-16 11:43 50.04343 8.57184 360 ft 26 kts 70°
2026-04-16 11:43 50.04407 8.57451 354 ft 26 kts 69°
2026-04-16 11:44 50.04473 8.57724 361 ft 28 kts 70°
2026-04-16 11:44 50.04541 8.58012 355 ft 29 kts 69°
2026-04-16 11:44 50.04609 8.58295 358 ft 26 kts 71°
2026-04-16 11:44 50.04674 8.58568 357 ft 28 kts 69°
2026-04-16 11:45 50.04721 8.58745 357 ft 11 kts 70°
2026-04-16 11:45 50.04760 8.58754 359 ft 10 kts 340°
2026-04-16 11:45 50.04832 8.58714 354 ft 13 kts 339°
2026-04-16 11:45 50.04925 8.58670 355 ft 13 kts 359°
2026-04-16 11:46 50.04969 8.58746 354 ft 6 kts 94°
2026-04-16 11:46 50.04942 8.58773 354 ft 4 kts 159°
2026-04-16 11:46 50.04918 8.58786 355 ft 3 kts 161°
2026-04-16 11:46 50.04901 8.58795 358 ft 2 kts 160°
2026-04-16 11:47 50.04900 8.58796 358 ft 0 kts 160°